Challis, ID

10:34 PM MDT on May 26, 2017 (GMT -0600)
Challis

Weather History for KLLJ - April, 2014

Change the Weather History Date:

Saturday, April 5, 2014

  Actual Average Record
Temperature  
Mean Temperature 40 °F 41 °F  
Max Temperature 51 °F 55 °F 75 °F (1959)
Min Temperature 28 °F 28 °F 10 °F (1936)
Degree Days  
Heating Degree Days 25 24  
Month to date heating degree days 140 120  
Since 1 July heating degree days 6742 7065  
Cooling Degree Days 0 0  
Month to date cooling degree days 0 0  
Year to date cooling degree days 0 0  
Moisture  
Dew Point 24 °F    
Average Humidity 56    
Maximum Humidity 85    
Minimum Humidity 26    
Precipitation  
Precipitation T in 0.02 in 0.60 in (1967)
Month to date precipitation 0.58 0.10  
Year to date precipitation 2.26 1.94  
Sea Level Pressure  
Sea Level Pressure 29.92 in    
Wind  
Wind Speed 7 mph (West)    
Max Wind Speed 21 mph    
Max Gust Speed 25 mph    
Visibility 10 miles    
Events Rain    
T = Trace of Precipitation, MM = Missing Value Source: NWS Daily Summary

Daily Weather History Graph

Daily Weather History Graph

Search for Another Location

Airport or City:

Trip Planner

Search our weather history database for the weather conditions in past years. The results will help you decide how hot, cold, wet, or windy it might be!

Date:

Astronomy

Apr. 05, 2014 Rise Set
Actual Time 7:10 AM MDT 8:09 PM MDT
Civil Twilight 6:40 AM MDT 8:39 PM MDT
Nautical Twilight 6:05 AM MDT 9:14 PM MDT
Astronomical Twilight 5:28 AM MDT 9:51 PM MDT
Moon 11:13 AM MDT (4/5) 1:30 AM MDT (4/5)
Length of Visible Light 13h 58m
Length of Day
12h 58m
Waxing Crescent, 35% of the Moon is Illuminated
Apr 5
Waxing Crescent
Apr 7
First Quarter
Apr 15
Full
Apr 22
Last Quarter
Apr 29
New

Hourly Weather History & Observations

Time (MDT) Temp. Windchill Dew Point Humidity Pressure Visibility Wind Dir Wind Speed Gust Speed Precip Events Conditions
12:55 AM 39.0 °F - 23.0 °F 53% 29.83 in 10.0 mi Calm Calm - N/A   Partly Cloudy
1:55 AM 37.0 °F - 25.0 °F 62% 29.85 in 10.0 mi Calm Calm - N/A   Overcast
2:55 AM 34.0 °F - 26.1 °F 73% 29.87 in 10.0 mi Calm Calm - N/A   Mostly Cloudy
3:55 AM 37.0 °F - 23.0 °F 57% 29.86 in 10.0 mi Calm Calm - N/A   Overcast
4:55 AM 34.0 °F - 25.0 °F 70% 29.87 in 10.0 mi Calm Calm - N/A   Overcast
5:55 AM 30.0 °F 26.5 °F 26.1 °F 85% 29.89 in 10.0 mi West 3.5 mph - N/A   Overcast
6:55 AM 28.9 °F 22.8 °F 25.0 °F 85% 29.90 in 10.0 mi WSW 5.8 mph - N/A   Partly Cloudy
10:55 AM 41.0 °F 39.0 °F 27.0 °F 57% 29.94 in 10.0 mi Variable 3.5 mph - N/A   Overcast
11:55 AM 39.0 °F 35.7 °F 28.0 °F 65% 29.96 in 10.0 mi West 4.6 mph - N/A   Overcast
12:55 PM 42.1 °F 35.7 °F 32.0 °F 67% 29.93 in 10.0 mi SSE 11.5 mph - 0.00 in Rain Light Rain
1:55 PM 46.0 °F 41.4 °F 28.9 °F 51% 29.90 in 10.0 mi South 9.2 mph - 0.00 in   Scattered Clouds
2:55 PM 46.9 °F - 25.0 °F 42% 29.90 in 10.0 mi Variable 6.9 mph - N/A   Mostly Cloudy
3:55 PM 50.0 °F - 25.0 °F 38% 29.87 in 10.0 mi NW 19.6 mph 24.2 mph N/A   Mostly Cloudy
4:55 PM 50.0 °F - 19.9 °F 31% 29.89 in 10.0 mi NW 17.3 mph 24.2 mph N/A   Partly Cloudy
5:55 PM 48.9 °F - 16.0 °F 27% 29.93 in 10.0 mi NW 12.7 mph 23.0 mph N/A   Partly Cloudy
6:55 PM 46.9 °F - 18.0 °F 32% 29.96 in 10.0 mi NW 13.8 mph - N/A   Clear
7:55 PM 43.0 °F 36.4 °F 18.0 °F 37% 29.98 in 10.0 mi NW 12.7 mph - N/A   Clear
8:55 PM 42.1 °F 36.1 °F 19.9 °F 41% 29.99 in 10.0 mi West 10.4 mph - N/A   Clear
9:55 PM 39.0 °F 33.4 °F 21.0 °F 49% 30.02 in 10.0 mi West 8.1 mph - N/A   Partly Cloudy
10:55 PM 39.9 °F 34.5 °F 21.0 °F 47% 30.01 in 10.0 mi WSW 8.1 mph - N/A   Overcast
11:55 PM 39.9 °F 36.7 °F 23.0 °F 51% 30.01 in 10.0 mi West 4.6 mph - N/A   Overcast